sat.trackr.live / text

‹ back to catalog

ONEWEB-0362

NORAD 49288 · 2021-090K

PAYLOAD ACTIVE UNKNOWN

§ Identity

Operator
Country
UK
Launch date
2021-10-14
Launch site
VOSTO
Launch vehicle
Mass (kg)
RCS (m²)

Purposes: comms

External: N2YO · Heavens-Above · Gunter

§ Orbital elements

Epoch: 2026-05-24T23:27:17.596800Z

Period
109.11 min
Inclination
87.9150°
Eccentricity
0.0001562
Mean motion
13.19726482 rev/d
Perigee alt
1,184.6 km
Apogee alt
1,186.9 km
Semi-major
7,563.9 km
B*
-1.2503e-4
RAAN
309.6054°
Arg perigee
98.5880°
Mean anomaly
261.5430°
Rev number
22,385

§ Raw data

ONEWEB-03621 49288U 21090K   26144.97728700 -.00000037  00000+0 -12503-3 0  99952 49288  87.9150 309.6054 0001562  98.5880 261.5430 13.19726482223856

JSON: /api/v1/satellites/49288 · /tle

For live sub-satellite position, see the globe view (requires WebGL).

§ Visibility from observer

Set your observer location to see the next 7 days of passes ≥ 10°. The values pass through the URL so the page stays shareable.

No JS? Fill the form by hand. The geolocation button needs JavaScript.